Regional Weather Roundup
Issued by NWS Little Rock, AR

Home | Current Version | Previous Version | Text Only | Print | Product List | Glossary On
Versions: 1 2 3 4 5 6 7 8 9 10 11 12 13 14 15 16 17 18 19 20 21 22 23 24 25 26 27 28 29 30 31
000
ASUS44 KLZK 202105
RWRLZK

WEATHER ROUNDUP FOR ARKANSAS
NATIONAL WEATHER SERVICE LITTLE ROCK AR
400 PM CDT SUN MAY 20 2018

NOTE: "FAIR" INDICATES FEW OR NO CLOUDS BELOW 12,000 FEET WITH NO
SIGNIFICANT WEATHER AND/OR OBSTRUCTIONS TO VISIBILITY.

ARZ001-003-010-029-202200-
NORTHWEST ARKANSAS

CITY           SKY/WX    TMP DP  RH WIND       PRES   REMARKS
FAYETTEVILLE   PTSUNNY   82  64  54 S12       30.01F
FORT SMITH     MOSUNNY   88  65  46 S12       29.97F HX  90
HARRISON       MOSUNNY   82  68  62 SE7       30.01F HX  85
BENTONVILLE    MOSUNNY   83  65  54 SW8G16    30.03F HX  85
ROGERS         CLOUDY    83  66  56 SW9       30.02F HX  85
SILOAM SPGS    MOSUNNY   80  67  64 S8        30.02F
HIGHFILL       CLOUDY    81  64  56 SW12      30.02F
SPRINGDALE     PTSUNNY   82  64  54 SW10G17   30.03F
$$

ARZ004-005-016-202200-
NORTH CENTRAL ARKANSAS

CITY           SKY/WX    TMP DP  RH WIND       PRES   REMARKS
BATESVILLE     TSTM      80  71  74 W9        30.01S
FLIPPIN        MOSUNNY   84  70  62 VRB7      30.00F HX  88
MTN HOME       MOSUNNY   83  68  60 SE7       30.00F HX  86
$$

ARZ040-041-202200-
WEST CENTRAL ARKANSAS

CITY           SKY/WX    TMP DP  RH WIND       PRES   REMARKS
MENA           CLOUDY    88  68  51 CALM      30.02F HX  91
MOUNT IDA      PTSUNNY   89  65  44 VRB3      29.98F HX  91
$$

ARZ009-017-025-026-028-202200-
NORTHEAST ARKANSAS

CITY           SKY/WX    TMP DP  RH WIND       PRES   REMARKS
CORNING        FAIR      75  73  94 E5        30.02F
JONESBORO      LGT RAIN  75  68  78 NW6       30.01F
NEWPORT        LGT RAIN  80  67  64 NE15      29.98F
WALNUT RIDGE     N/A     75  72  90 E8        30.00F
BLYTHEVILLE    TSTM      74  65  73 N13G26    30.03R
$$

ARZ022-023-033-042-044-202200-
CENTRAL ARKANSAS

CITY           SKY/WX    TMP DP  RH WIND       PRES   REMARKS
LITTLE ROCK    MOSUNNY   90  68  48 S10       29.97F HX  94
N LITTLE ROCK    N/A     89  71  54 SW6       29.92F HX  94
JACKSONVILLE   SUNNY     91  70  49 S6        29.96F HX  97
CONWAY         PTCLDY    91  68  46 SW12      29.96F HX  95
SEARCY         FAIR      92  71  50 S6        29.97F HX  98
HOT SPRINGS    MOSUNNY   90  65  43 S9        29.98F HX  92
RUSSELLVILLE   MOSUNNY   90  61  37 S9G17     29.96F HX  90
CLINTON        FAIR      88  70  55 VRB5G13   29.98F HX  92
$$

ARZ036-202200-
EAST ARKANSAS

CITY           SKY/WX    TMP DP  RH WIND       PRES   REMARKS
WEST MEMPHIS   FAIR      88  62  41 SE15      29.97F HX  88
$$

ARZ050-053-066-070-073-202200-
SOUTHWEST ARKANSAS

CITY           SKY/WX    TMP DP  RH WIND       PRES   REMARKS
ARKADELPHIA    MOCLDY    91  68  46 S8        29.98F HX  95
CAMDEN         FAIR      91  66  43 VRB3G15   29.97F HX  94
TEXARKANA      CLOUDY    89  63  41 SW10      29.98F HX  90
EL DORADO      FAIR      91  70  49 SE7       29.98F HX  96
DE QUEEN       CLOUDY    87  68  52 S3        29.96F HX  90
$$

ARZ056-057-069-202200-
SOUTHEAST ARKANSAS

CITY           SKY/WX    TMP DP  RH WIND       PRES   REMARKS
PINE BLUFF     FAIR      91  67  44 S9        29.98F HX  94
STUTTGART      FAIR      91  68  46 SW10      29.97F HX  95
MONTICELLO     FAIR      90  70  51 S5        29.98F HX  95

$$






USA.gov is the U.S. government's official web portal to all federal, state and local government web resources and services.